Regional Weather Roundup
Issued by NWS Bismarck, ND

Home | Current Version | Previous Version | Text Only | Print | Product List | Glossary On
Versions: 1 2 3 4 5 6 7 8 9 10 11 12 13 14 15 16 17 18 19 20 21 22 23 24 25 26 27 28 29 30 31 32 33 34 35 36 37 38 39 40 41 42 43 44 45 46 47 48 49 50
000
ASUS43 KBIS 290610
RWRBIS

NWR BROADCAST TEXT
NATIONAL WEATHER SERVICE BISMARCK ND
100 AM CDT MON MAY 29 2017

NOTE: "FAIR" INDICATES FEW OR NO CLOUDS BELOW 12,000 FEET WITH NO
SIGNIFICANT WEATHER AND/OR OBSTRUCTIONS TO VISIBILITY.


CITY           SKY/WX    TMP DP  RH WIND       PRES   REMARKS
WILLISTON      MOCLDY    55  39  54 N15       30.07S
MINOT          MOCLDY    53  44  71 NW21G30   29.95S
MINOT AFB      FAIR      52  44  75 NW20      29.95R
BISMARCK       FAIR      53  42  66 NW9       29.97S
DICKINSON      FAIR      41  34  76 W7        30.04R
GARRISON         N/A     49  41  74 NW17      29.97S
HETTINGER ARPT FAIR      34  31  88 NW3       30.07R
JAMESTOWN      CLOUDY    52  47  83 NW10      29.86S
HAZEN          FAIR      48  43  81 NW8       30.01S
LINTON           N/A     43  43 100 NW8       29.97S
MANDAN         FAIR      48  41  76 NW10      29.98R
STANLEY        FAIR      46  46 100 NW8       30.04S
TIOGA          MOCLDY    48  45  87 NW10      30.06R
WATFORD CITY   FAIR      50  39  66 NW8       30.06R
$$

CITY           SKY/WX    TMP DP  RH WIND       PRES   REMARKS
GRAND FORKS    LGT RAIN  52  50  93 NW15      29.79S
GRAND FORKS AF CLOUDY    50  50 100 N13G20    29.80S
DEVILS LAKE    CLOUDY    52  45  77 NW12      29.86R
FARGO          CLOUDY    53  49  86 NW12      29.80S
CAVALIER         N/A     50  48  93 NW14      29.80S
GRAFTON        CLOUDY    50  50 100 NW13G21   29.81S
GWINNER        CLOUDY    54  48  82 MISG      29.85S
LANGDON        CLOUDY    48  48 100 N14       29.83S
ROLLA          CLOUDY    50  48  93 N13       29.88R
$$

CITY           SKY/WX    TMP DP  RH WIND       PRES   REMARKS
ABERDEEN       FAIR      52  40  63 NW10      29.90R
MOBRIDGE       FAIR      51  40  65 NW9       29.95R
BUFFALO          N/A     51  34  52 N8        30.04R
RAPID CITY     MOCLDY    54  40  59 NW12      30.09S
GLASGOW        FAIR      49  29  46 N9        30.15R
SIDNEY         FAIR      47  35  63 NW7       30.10R
WOLF POINT     FAIR      52  30  43 N10       30.13R
GLENDIVE       FAIR      50  29  44 NW12      30.12R
MILES CITY     FAIR      48  26  42 NW8       30.13R
BAKER          FAIR      45  33  63 W5        30.11S
$$

CITY           SKY/WX    TMP DP  RH WIND       PRES   REMARKS
BILLINGS       FAIR      54  44  69 NW12      30.21S
GREAT FALLS    FAIR      48  44  86 SW5       30.24S
ESTEVAN        PTCLDY    50  43  76 NW18      30.03S
$$





USA.gov is the U.S. government's official web portal to all federal, state and local government web resources and services.